York, NE

12:21 PM CDT on October 01, 2016 (GMT -0500)
York Municipal

Weather History for KJYR - February, 2013

Change the Weather History Date:

Thursday, February 28, 2013

  Actual Average Record
Temperature  
Mean Temperature 29 °F -  
Max Temperature 32 °F 46 °F 78 °F (1972)
Min Temperature 26 °F 24 °F -17 °F (1962)
Degree Days  
Heating Degree Days 36    
Moisture  
Dew Point 25 °F    
Average Humidity 83    
Maximum Humidity 93    
Minimum Humidity 75    
Precipitation  
Precipitation 0.00 in - - ()
Sea Level Pressure  
Sea Level Pressure 30.19 in    
Wind  
Wind Speed 13 mph (North)    
Max Wind Speed 18 mph    
Max Gust Speed 29 mph    
Visibility 10 miles    
Events      
Averages and records for this station are not official NWS values.
T = Trace of Precipitation, MM = Missing Value Source: NWS Daily Summary

Daily Weather History Graph

Daily Weather History Graph

Search for Another Location

Airport or City:

Trip Planner

Search our weather history database for the weather conditions in past years. The results will help you decide how hot, cold, wet, or windy it might be!

Date:

Astronomy

Feb. 28, 2013 Rise Set
Actual Time 7:05 AM CST 6:20 PM CST
Civil Twilight 6:38 AM CST 6:48 PM CST
Nautical Twilight 6:06 AM CST 7:20 PM CST
Astronomical Twilight 5:34 AM CST 7:52 PM CST
Moon 9:51 PM CST (2/28) 8:14 AM CST (2/28)
Length of Visible Light 12h 10m
Length of Day
11h 15m
Waning Gibbous, 90% of the Moon is Illuminated
Feb 28
Waning Gibbous
Mar 4
Last Quarter
Mar 11
New
Mar 19
First Quarter
Mar 27
Full

Hourly Weather History & Observations

Time (CST) Temp. Windchill Dew Point Humidity Pressure Visibility Wind Dir Wind Speed Gust Speed Precip Events Conditions
12:15 AM 32.0 °F 22.5 °F 26.6 °F 80% 30.12 in 10.0 mi NNW 12.7 mph 18.4 mph N/A   Overcast
12:55 AM 32.0 °F 22.5 °F 26.6 °F 80% 30.12 in 10.0 mi North 12.7 mph 21.9 mph N/A   Overcast
1:15 AM 32.0 °F 20.5 °F 26.6 °F 80% 30.12 in 10.0 mi North 18.4 mph 28.8 mph N/A   Overcast
1:35 AM 32.0 °F 23.0 °F 26.6 °F 80% 30.13 in 10.0 mi North 11.5 mph 19.6 mph N/A   Overcast
1:55 AM 30.2 °F 18.9 °F 24.8 °F 80% 30.13 in 10.0 mi North 16.1 mph 24.2 mph N/A   Overcast
2:15 AM 30.2 °F 20.2 °F 24.8 °F 80% 30.13 in 10.0 mi North 12.7 mph 19.6 mph N/A   Overcast
2:35 AM 30.2 °F 19.8 °F 24.8 °F 80% 30.13 in 10.0 mi North 13.8 mph 24.2 mph N/A   Overcast
2:55 AM 30.2 °F 20.2 °F 24.8 °F 80% 30.13 in 10.0 mi North 12.7 mph 18.4 mph N/A   Overcast
3:15 AM 30.2 °F 20.2 °F 26.6 °F 86% 30.13 in 10.0 mi North 12.7 mph 18.4 mph N/A   Overcast
3:35 AM 28.4 °F 17.5 °F 24.8 °F 86% 30.13 in 10.0 mi North 13.8 mph - N/A   Overcast
3:55 AM 28.4 °F 17.5 °F 24.8 °F 86% 30.13 in 10.0 mi NNW 13.8 mph 21.9 mph N/A   Overcast
4:15 AM 28.4 °F 17.0 °F 24.8 °F 86% 30.13 in 10.0 mi North 15.0 mph - N/A   Overcast
4:35 AM 28.4 °F 17.5 °F 24.8 °F 86% 30.14 in 10.0 mi North 13.8 mph - N/A   Overcast
4:55 AM 28.4 °F 18.0 °F 24.8 °F 86% 30.14 in 10.0 mi North 12.7 mph - N/A   Overcast
5:15 AM 28.4 °F 18.0 °F 24.8 °F 86% 30.15 in 10.0 mi NNW 12.7 mph - N/A   Overcast
5:35 AM 28.4 °F 18.0 °F 24.8 °F 86% 30.15 in 10.0 mi North 12.7 mph 20.7 mph N/A   Overcast
5:55 AM 28.4 °F 18.0 °F 24.8 °F 86% 30.16 in 10.0 mi North 12.7 mph 19.6 mph N/A   Overcast
6:15 AM 28.4 °F 17.5 °F 24.8 °F 86% 30.16 in 10.0 mi North 13.8 mph 19.6 mph N/A   Overcast
6:35 AM 28.4 °F 17.5 °F 24.8 °F 86% 30.17 in 10.0 mi North 13.8 mph 19.6 mph N/A   Overcast
6:55 AM 28.4 °F 18.5 °F 24.8 °F 86% 30.17 in 10.0 mi North 11.5 mph 17.3 mph N/A   Overcast
7:15 AM 26.6 °F 15.2 °F 24.8 °F 93% 30.17 in 10.0 mi North 13.8 mph - N/A   Overcast
7:35 AM 26.6 °F 15.2 °F 24.8 °F 93% 30.18 in 10.0 mi North 13.8 mph 23.0 mph N/A   Overcast
7:55 AM 26.6 °F 16.2 °F 24.8 °F 93% 30.18 in 10.0 mi North 11.5 mph 20.7 mph N/A   Overcast
8:15 AM 26.6 °F 15.7 °F 24.8 °F 93% 30.19 in 10.0 mi North 12.7 mph 19.6 mph N/A   Overcast
8:35 AM 26.6 °F 15.7 °F 24.8 °F 93% 30.20 in 10.0 mi North 12.7 mph 23.0 mph N/A   Overcast
8:55 AM 26.6 °F 15.7 °F 24.8 °F 93% 30.20 in 10.0 mi North 12.7 mph 20.7 mph N/A   Overcast
9:15 AM 28.4 °F 17.0 °F 24.8 °F 86% 30.20 in 10.0 mi North 15.0 mph 19.6 mph N/A   Overcast
9:35 AM 28.4 °F 18.5 °F 24.8 °F 86% 30.21 in 10.0 mi North 11.5 mph 18.4 mph N/A   Overcast
9:55 AM 28.4 °F 17.5 °F 24.8 °F 86% 30.21 in 10.0 mi North 13.8 mph 18.4 mph N/A   Overcast
10:15 AM 28.4 °F 17.5 °F 24.8 °F 86% 30.22 in 10.0 mi North 13.8 mph - N/A   Overcast
10:35 AM 28.4 °F 17.5 °F 24.8 °F 86% 30.22 in 10.0 mi North 13.8 mph 21.9 mph N/A   Overcast
10:55 AM 28.4 °F 17.5 °F 24.8 °F 86% 30.22 in 10.0 mi North 13.8 mph 20.7 mph N/A   Overcast
11:15 AM 30.2 °F 21.3 °F 24.8 °F 80% 30.22 in 10.0 mi North 10.4 mph 18.4 mph N/A   Overcast
11:35 AM 30.2 °F 19.3 °F 24.8 °F 80% 30.22 in 10.0 mi North 15.0 mph 24.2 mph N/A   Overcast
11:55 AM 30.2 °F 20.8 °F 24.8 °F 80% 30.22 in 10.0 mi North 11.5 mph 18.4 mph N/A   Overcast
12:35 PM 32.0 °F 20.8 °F 24.8 °F 75% 30.21 in 10.0 mi North 17.3 mph 26.5 mph N/A   Overcast
12:55 PM 32.0 °F 23.0 °F 24.8 °F 75% 30.21 in 10.0 mi North 11.5 mph 19.6 mph N/A   Overcast
1:15 PM 32.0 °F 22.1 °F 24.8 °F 75% 30.20 in 10.0 mi North 13.8 mph 20.7 mph N/A   Overcast
1:35 PM 32.0 °F 22.5 °F 24.8 °F 75% 30.20 in 10.0 mi North 12.7 mph 18.4 mph N/A   Overcast
1:55 PM 32.0 °F 22.1 °F 24.8 °F 75% 30.20 in 10.0 mi North 13.8 mph 19.6 mph N/A   Overcast
2:15 PM 32.0 °F 23.6 °F 24.8 °F 75% 30.19 in 10.0 mi North 10.4 mph 18.4 mph N/A   Overcast
2:35 PM 32.0 °F 23.0 °F 24.8 °F 75% 30.19 in 10.0 mi North 11.5 mph 16.1 mph N/A   Overcast
2:55 PM 32.0 °F 23.0 °F 24.8 °F 75% 30.19 in 10.0 mi NNW 11.5 mph - N/A   Overcast
3:15 PM 32.0 °F 23.6 °F 24.8 °F 75% 30.19 in 10.0 mi NNW 10.4 mph - N/A   Overcast
3:35 PM 32.0 °F 23.6 °F 24.8 °F 75% 30.19 in 10.0 mi North 10.4 mph - N/A   Overcast
3:55 PM 32.0 °F 23.0 °F 24.8 °F 75% 30.19 in 10.0 mi NNW 11.5 mph 18.4 mph N/A   Overcast
4:15 PM 32.0 °F 23.6 °F 24.8 °F 75% 30.19 in 10.0 mi North 10.4 mph - N/A   Overcast
4:35 PM 32.0 °F 24.2 °F 24.8 °F 75% 30.19 in 10.0 mi NNW 9.2 mph - N/A   Overcast
4:55 PM 32.0 °F 22.5 °F 24.8 °F 75% 30.19 in 10.0 mi North 12.7 mph - N/A   Overcast
5:15 PM 30.2 °F 19.8 °F 24.8 °F 80% 30.19 in 10.0 mi North 13.8 mph 17.3 mph N/A   Overcast
5:35 PM 30.2 °F 20.8 °F 24.8 °F 80% 30.20 in 10.0 mi North 11.5 mph - N/A   Overcast
5:55 PM 30.2 °F 19.3 °F 24.8 °F 80% 30.20 in 10.0 mi North 15.0 mph 19.6 mph N/A   Overcast
6:15 PM 30.2 °F 21.3 °F 24.8 °F 80% 30.21 in 10.0 mi North 10.4 mph 16.1 mph N/A   Overcast
6:35 PM 30.2 °F 21.9 °F 24.8 °F 80% 30.22 in 10.0 mi North 9.2 mph - N/A   Overcast
6:55 PM 28.4 °F 19.7 °F 24.8 °F 86% 30.22 in 10.0 mi North 9.2 mph - N/A   Overcast
7:15 PM 28.4 °F 18.5 °F 24.8 °F 86% 30.22 in 10.0 mi North 11.5 mph 18.4 mph N/A   Overcast
7:35 PM 28.4 °F 20.4 °F 24.8 °F 86% 30.23 in 10.0 mi North 8.1 mph - N/A   Overcast
7:55 PM 28.4 °F 18.0 °F 23.0 °F 80% 30.23 in 10.0 mi North 12.7 mph 17.3 mph N/A   Overcast
8:15 PM 28.4 °F 16.6 °F 23.0 °F 80% 30.23 in 10.0 mi North 16.1 mph 21.9 mph N/A   Overcast
8:35 PM 28.4 °F 18.5 °F 23.0 °F 80% 30.23 in 10.0 mi North 11.5 mph 23.0 mph N/A   Overcast
8:55 PM 28.4 °F 17.5 °F 23.0 °F 80% 30.22 in 10.0 mi North 13.8 mph - N/A   Overcast
9:15 PM 26.6 °F 16.2 °F 23.0 °F 86% 30.23 in 10.0 mi NNE 11.5 mph 17.3 mph N/A   Overcast
9:35 PM 26.6 °F 16.2 °F 23.0 °F 86% 30.24 in 10.0 mi NNE 11.5 mph - N/A   Overcast
9:55 PM 26.6 °F 16.2 °F 23.0 °F 86% 30.24 in 10.0 mi North 11.5 mph - N/A   Overcast
10:15 PM 26.6 °F 15.2 °F 23.0 °F 86% 30.23 in 10.0 mi North 13.8 mph 21.9 mph N/A   Overcast
10:35 PM 26.6 °F 16.2 °F 23.0 °F 86% 30.23 in 10.0 mi North 11.5 mph 18.4 mph N/A   Overcast
10:55 PM 26.6 °F 16.8 °F 23.0 °F 86% 30.23 in 10.0 mi North 10.4 mph 16.1 mph N/A   Overcast
11:15 PM 26.6 °F 16.2 °F 23.0 °F 86% 30.22 in 10.0 mi North 11.5 mph - N/A   Overcast
11:35 PM 26.6 °F 17.5 °F 23.0 °F 86% 30.22 in 10.0 mi North 9.2 mph 17.3 mph N/A   Overcast
11:55 PM 26.6 °F 16.2 °F 23.0 °F 86% 30.21 in 10.0 mi North 11.5 mph 18.4 mph N/A   Overcast